sat.trackr.live / text

‹ back to catalog

STARLINK-34195

NORAD 64142 · 2025-111V

PAYLOAD ACTIVE UNKNOWN

§ Identity

Operator
Country
US
Launch date
2025-05-24
Launch site
AFETR
Launch vehicle
Mass (kg)
RCS (m²)

Purposes: comms

External: N2YO · Heavens-Above · Gunter

§ Orbital elements

Epoch: 2026-09-20T22:02:04.068960Z

Period
94.27 min
Inclination
42.9998°
Eccentricity
0.0001462
Mean motion
15.27579077 rev/d
Perigee alt
482.0 km
Apogee alt
484.1 km
Semi-major
6,861.2 km
B*
5.0964e-4
RAAN
55.0953°
Arg perigee
267.0844°
Mean anomaly
92.9840°
Rev number
7,532

§ Raw data

STARLINK-341951 64142U 25111V   26263.91810265  .00013788  00000+0  50964-3 0  99912 64142  42.9998  55.0953 0001462 267.0844  92.9840 15.27579077 75320

JSON: /api/v1/satellites/64142 · /tle

For live sub-satellite position, see the globe view (requires WebGL).

§ Visibility from observer

Set your observer location to see the next 7 days of passes ≥ 10°. The values pass through the URL so the page stays shareable.

No JS? Fill the form by hand. The geolocation button needs JavaScript.